Time,TemperatureF,DewpointF,PressureIn,WindDirection,WindDirectionDegrees,WindSpeedMPH,WindSpeedGustMPH,Humidity,HourlyPrecipIn,Conditions,Clouds,dailyrainin,SoftwareType,DateUTC
2013-03-19 00:02:00,59.0,41.0,29.97,NE,54,2.0,9.0,51,0.00,,,0.00,,2013-03-19 05:02:00,
2013-03-19 00:12:00,59.0,41.0,29.97,NE,54,2.0,9.0,51,0.00,,,0.00,,2013-03-19 05:12:00,
2013-03-19 00:22:00,59.0,40.0,29.97,ENE,58,5.0,7.0,50,0.00,,,0.00,,2013-03-19 05:22:00,
2013-03-19 00:32:00,58.0,40.0,29.97,ENE,59,4.0,8.0,51,0.00,,,0.00,,2013-03-19 05:32:00,
2013-03-19 00:42:00,58.0,40.0,29.97,ENE,59,4.0,8.0,51,0.00,,,0.00,,2013-03-19 05:42:00,
2013-03-19 00:52:00,58.0,40.0,29.96,ENE,61,4.0,8.0,52,0.00,,,0.00,,2013-03-19 05:52:00,
2013-03-19 01:02:00,57.0,40.0,29.97,ENE,63,3.0,9.0,53,0.00,,,0.00,,2013-03-19 06:02:00,
2013-03-19 01:12:00,57.0,40.0,29.97,ENE,63,3.0,9.0,53,0.00,,,0.00,,2013-03-19 06:12:00,
2013-03-19 01:22:00,56.0,40.0,29.96,ENE,63,2.0,6.0,55,0.00,,,0.00,,2013-03-19 06:22:00,
2013-03-19 01:32:00,56.0,41.0,29.96,ENE,67,4.0,10.0,56,0.00,,,0.00,,2013-03-19 06:32:00,
2013-03-19 01:42:00,56.0,41.0,29.96,ENE,67,4.0,10.0,56,0.00,,,0.00,,2013-03-19 06:42:00,
2013-03-19 01:52:00,55.0,39.0,29.95,ENE,74,3.0,8.0,55,0.00,,,0.00,,2013-03-19 06:52:00,
2013-03-19 02:02:00,55.0,39.0,29.95,East,79,2.0,8.0,54,0.00,,,0.00,,2013-03-19 07:02:00,
2013-03-19 02:12:00,55.0,39.0,29.95,East,79,2.0,8.0,54,0.00,,,0.00,,2013-03-19 07:12:00,
2013-03-19 02:21:00,54.0,37.0,29.95,ENE,68,3.0,10.0,53,0.00,,,0.00,,2013-03-19 07:21:00,
2013-03-19 02:32:00,54.0,37.0,29.94,ENE,69,5.0,9.0,52,0.00,,,0.00,,2013-03-19 07:32:00,
2013-03-19 02:42:00,54.0,37.0,29.94,ENE,69,5.0,9.0,52,0.00,,,0.00,,2013-03-19 07:42:00,
2013-03-19 02:52:00,54.0,37.0,29.95,ENE,69,3.0,6.0,53,0.00,,,0.00,,2013-03-19 07:52:00,
2013-03-19 03:02:00,53.0,36.0,29.96,ENE,69,0.0,3.0,52,0.00,,,0.00,,2013-03-19 08:02:00,
2013-03-19 03:12:00,53.0,36.0,29.96,ENE,69,0.0,3.0,52,0.00,,,0.00,,2013-03-19 08:12:00,
2013-03-19 03:22:00,52.0,36.0,29.96,ENE,69,0.0,2.0,55,0.00,,,0.00,,2013-03-19 08:22:00,
2013-03-19 03:32:00,51.0,36.0,29.96,ENE,69,0.0,0.0,57,0.00,,,0.00,,2013-03-19 08:32:00,
2013-03-19 03:42:00,51.0,36.0,29.96,ENE,69,0.0,0.0,57,0.00,,,0.00,,2013-03-19 08:42:00,
2013-03-19 03:52:00,51.0,36.0,29.95,ENE,69,2.0,5.0,57,0.00,,,0.00,,2013-03-19 08:52:00,
2013-03-19 04:02:00,51.0,36.0,29.94,ENE,69,3.0,7.0,56,0.00,,,0.00,,2013-03-19 09:02:00,
2013-03-19 04:12:00,51.0,36.0,29.94,ENE,69,3.0,7.0,56,0.00,,,0.00,,2013-03-19 09:12:00,
2013-03-19 04:22:00,51.0,35.0,29.94,ENE,69,3.0,5.0,54,0.00,,,0.00,,2013-03-19 09:22:00,
2013-03-19 04:32:00,51.0,35.0,29.93,ENE,71,3.0,7.0,54,0.00,,,0.00,,2013-03-19 09:32:00,
2013-03-19 04:42:00,51.0,35.0,29.93,ENE,71,3.0,7.0,54,0.00,,,0.00,,2013-03-19 09:42:00,
2013-03-19 04:53:00,51.0,35.0,29.93,ENE,74,1.0,3.0,55,0.00,,,0.00,,2013-03-19 09:53:00,
2013-03-19 05:03:00,50.0,35.0,29.93,ENE,74,1.0,5.0,57,0.00,,,0.00,,2013-03-19 10:03:00,
2013-03-19 05:12:00,50.0,35.0,29.93,ENE,74,1.0,5.0,57,0.00,,,0.00,,2013-03-19 10:12:00,
2013-03-19 05:23:00,50.0,36.0,29.94,ENE,74,2.0,3.0,59,0.00,,,0.00,,2013-03-19 10:23:00,
2013-03-19 05:32:00,49.0,36.0,29.94,ENE,74,0.0,3.0,60,0.00,,,0.00,,2013-03-19 10:32:00,
2013-03-19 05:42:00,49.0,36.0,29.94,ENE,74,0.0,3.0,60,0.00,,,0.00,,2013-03-19 10:42:00,
2013-03-19 05:53:00,49.0,37.0,29.95,ENE,74,1.0,2.0,62,0.00,,,0.00,,2013-03-19 10:53:00,
2013-03-19 06:02:00,49.0,37.0,29.96,ENE,74,1.0,3.0,63,0.00,,,0.00,,2013-03-19 11:02:00,
2013-03-19 06:12:00,49.0,37.0,29.96,ENE,74,1.0,3.0,63,0.00,,,0.00,,2013-03-19 11:12:00,
2013-03-19 06:22:00,49.0,37.0,29.97,ENE,73,2.0,7.0,64,0.00,,,0.00,,2013-03-19 11:22:00,
2013-03-19 06:32:00,49.0,38.0,29.98,ENE,73,3.0,6.0,65,0.00,,,0.00,,2013-03-19 11:32:00,
2013-03-19 06:42:00,49.0,38.0,29.98,ENE,73,3.0,6.0,65,0.00,,,0.00,,2013-03-19 11:42:00,
2013-03-19 06:52:00,49.0,38.0,29.98,ENE,72,2.0,5.0,66,0.00,,,0.00,,2013-03-19 11:52:00,
2013-03-19 07:02:00,49.0,39.0,29.98,ENE,72,3.0,5.0,68,0.00,,,0.00,,2013-03-19 12:02:00,
2013-03-19 07:12:00,49.0,39.0,30.00,ENE,72,2.0,5.0,68,0.00,,,0.00,,2013-03-19 12:12:00,
2013-03-19 07:22:00,49.0,39.0,30.00,ENE,72,2.0,5.0,68,0.00,,,0.00,,2013-03-19 12:22:00,
2013-03-19 07:32:00,49.0,39.0,30.01,ENE,72,3.0,5.0,69,0.00,,,0.00,,2013-03-19 12:32:00,
2013-03-19 07:42:00,49.0,39.0,30.01,ENE,72,3.0,5.0,69,0.00,,,0.00,,2013-03-19 12:42:00,
2013-03-19 07:52:00,49.0,40.0,30.02,ENE,71,3.0,6.0,70,0.00,,,0.00,,2013-03-19 12:52:00,
2013-03-19 08:02:00,49.0,40.0,30.02,ENE,71,1.0,7.0,71,0.00,,,0.00,,2013-03-19 13:02:00,
2013-03-19 08:12:00,49.0,40.0,30.02,ENE,71,1.0,7.0,71,0.00,,,0.00,,2013-03-19 13:12:00,
2013-03-19 08:22:00,49.0,40.0,30.03,ENE,71,2.0,6.0,71,0.00,,,0.00,,2013-03-19 13:22:00,
2013-03-19 08:32:00,49.0,40.0,30.04,ENE,70,3.0,5.0,71,0.00,,,0.00,,2013-03-19 13:32:00,
2013-03-19 08:42:00,49.0,40.0,30.04,ENE,70,3.0,5.0,71,0.00,,,0.00,,2013-03-19 13:42:00,
2013-03-19 08:52:00,50.0,41.0,30.04,ENE,63,4.0,9.0,72,0.00,,,0.00,,2013-03-19 13:52:00,
2013-03-19 09:02:00,50.0,41.0,30.04,ENE,64,7.0,12.0,72,0.00,,,0.00,,2013-03-19 14:02:00,
2013-03-19 09:12:00,50.0,41.0,30.04,ENE,64,7.0,12.0,72,0.00,,,0.00,,2013-03-19 14:12:00,
2013-03-19 09:22:00,51.0,42.0,30.05,ENE,67,7.0,12.0,71,0.00,,,0.00,,2013-03-19 14:22:00,
2013-03-19 09:32:00,51.0,42.0,30.05,ENE,67,6.0,10.0,71,0.00,,,0.00,,2013-03-19 14:32:00,
2013-03-19 09:42:00,51.0,42.0,30.05,ENE,67,6.0,10.0,71,0.00,,,0.00,,2013-03-19 14:42:00,
2013-03-19 09:52:00,53.0,43.0,30.05,ENE,66,7.0,12.0,70,0.00,,,0.00,,2013-03-19 14:52:00,
2013-03-19 10:02:00,54.0,44.0,30.06,ENE,65,3.0,9.0,70,0.00,,,0.00,,2013-03-19 15:02:00,
2013-03-19 10:12:00,54.0,44.0,30.06,ENE,65,3.0,9.0,70,0.00,,,0.00,,2013-03-19 15:12:00,
2013-03-19 10:22:00,54.0,44.0,30.05,ENE,65,5.0,12.0,70,0.00,,,0.00,,2013-03-19 15:22:00,
2013-03-19 10:33:00,55.0,45.0,30.05,ENE,69,4.0,12.0,69,0.00,,,0.00,,2013-03-19 15:33:00,
2013-03-19 10:43:00,55.0,45.0,30.05,ENE,69,4.0,12.0,69,0.00,,,0.00,,2013-03-19 15:43:00,
2013-03-19 10:53:00,57.0,46.0,30.05,ENE,70,6.0,10.0,67,0.00,,,0.00,,2013-03-19 15:53:00,
2013-03-19 11:03:00,58.0,46.0,30.05,ESE,110,3.0,13.0,65,0.00,,,0.00,,2013-03-19 16:03:00,
2013-03-19 11:13:00,58.0,46.0,30.05,ESE,110,3.0,13.0,65,0.00,,,0.00,,2013-03-19 16:13:00,
2013-03-19 11:24:00,59.0,45.0,30.04,ESE,116,5.0,12.0,60,0.00,,,0.00,,2013-03-19 16:24:00,
2013-03-19 11:34:00,59.0,45.0,30.04,ENE,70,5.0,12.0,59,0.00,,,0.00,,2013-03-19 16:34:00,
2013-03-19 11:43:00,59.0,45.0,30.04,ENE,70,5.0,12.0,59,0.00,,,0.00,,2013-03-19 16:43:00,
2013-03-19 11:54:00,60.0,45.0,30.04,ENE,63,2.0,9.0,57,0.00,,,0.00,,2013-03-19 16:54:00,
2013-03-19 12:03:00,61.0,45.0,30.03,ESE,111,4.0,10.0,55,0.00,,,0.00,,2013-03-19 17:03:00,
2013-03-19 12:13:00,63.0,43.0,30.04,ESE,107,3.0,10.0,48,0.00,,,0.00,,2013-03-19 17:13:00,
2013-03-19 12:23:00,63.0,43.0,30.04,ESE,107,3.0,10.0,48,0.00,,,0.00,,2013-03-19 17:23:00,
2013-03-19 12:34:00,63.0,44.0,30.03,East,97,3.0,8.0,50,0.00,,,0.00,,2013-03-19 17:34:00,
2013-03-19 12:43:00,63.0,44.0,30.03,East,97,3.0,8.0,50,0.00,,,0.00,,2013-03-19 17:43:00,
2013-03-19 12:53:00,64.0,43.0,30.03,ESE,107,6.0,10.0,47,0.00,,,0.00,,2013-03-19 17:53:00,
2013-03-19 13:02:00,64.0,43.0,30.02,ENE,71,8.0,15.0,46,0.00,,,0.00,,2013-03-19 18:02:00,
2013-03-19 13:13:00,64.0,43.0,30.02,ENE,71,8.0,15.0,46,0.00,,,0.00,,2013-03-19 18:13:00,
2013-03-19 13:23:00,65.0,43.0,30.02,NE,55,4.0,12.0,45,0.00,,,0.00,,2013-03-19 18:23:00,
2013-03-19 13:33:00,64.0,43.0,30.02,ENE,67,7.0,12.0,46,0.00,,,0.00,,2013-03-19 18:33:00,
2013-03-19 13:42:00,64.0,43.0,30.02,ENE,67,7.0,12.0,46,0.00,,,0.00,,2013-03-19 18:42:00,
2013-03-19 13:53:00,65.0,44.0,30.01,ENE,63,5.0,12.0,46,0.00,,,0.00,,2013-03-19 18:53:00,
2013-03-19 14:02:00,65.0,43.0,30.00,ENE,67,6.0,9.0,45,0.00,,,0.00,,2013-03-19 19:02:00,
2013-03-19 14:12:00,65.0,43.0,30.00,ENE,67,6.0,9.0,45,0.00,,,0.00,,2013-03-19 19:12:00,
2013-03-19 14:22:00,66.0,44.0,29.99,ENE,70,3.0,10.0,45,0.00,,,0.00,,2013-03-19 19:22:00,
2013-03-19 14:32:00,66.0,44.0,29.98,NE,53,5.0,10.0,45,0.00,,,0.00,,2013-03-19 19:32:00,
2013-03-19 14:42:00,66.0,44.0,29.98,NE,53,5.0,10.0,45,0.00,,,0.00,,2013-03-19 19:42:00,
2013-03-19 14:53:00,67.0,46.0,29.98,ESE,105,1.0,6.0,46,0.00,,,0.00,,2013-03-19 19:53:00,
2013-03-19 15:02:00,67.0,45.0,29.97,ENE,66,4.0,9.0,45,0.00,,,0.00,,2013-03-19 20:02:00,
2013-03-19 15:12:00,67.0,46.0,29.96,ESE,108,5.0,10.0,47,0.00,,,0.00,,2013-03-19 20:12:00,
2013-03-19 15:22:00,67.0,46.0,29.96,ESE,108,5.0,10.0,47,0.00,,,0.00,,2013-03-19 20:22:00,
2013-03-19 15:32:00,68.0,46.0,29.96,NE,55,6.0,10.0,46,0.00,,,0.00,,2013-03-19 20:32:00,
2013-03-19 15:42:00,68.0,46.0,29.96,NE,55,6.0,10.0,46,0.00,,,0.00,,2013-03-19 20:42:00,
2013-03-19 15:53:00,68.0,46.0,29.94,NE,51,0.0,7.0,46,0.00,,,0.00,,2013-03-19 20:53:00,
2013-03-19 16:02:00,69.0,46.0,29.94,ENE,64,3.0,8.0,44,0.00,,,0.00,,2013-03-19 21:02:00,
2013-03-19 16:12:00,68.0,47.0,29.94,ENE,64,2.0,7.0,47,0.00,,,0.00,,2013-03-19 21:12:00,
2013-03-19 16:22:00,68.0,47.0,29.94,ENE,64,2.0,7.0,47,0.00,,,0.00,,2013-03-19 21:22:00,
2013-03-19 16:33:00,68.0,46.0,29.95,East,98,1.0,3.0,46,0.00,,,0.00,,2013-03-19 21:33:00,
2013-03-19 16:43:00,68.0,46.0,29.95,East,98,1.0,3.0,46,0.00,,,0.00,,2013-03-19 21:43:00,
2013-03-19 16:53:00,68.0,46.0,29.94,ENE,63,2.0,7.0,46,0.00,,,0.00,,2013-03-19 21:53:00,
2013-03-19 17:03:00,68.0,47.0,29.95,ENE,63,1.0,3.0,47,0.00,,,0.00,,2013-03-19 22:03:00,
2013-03-19 17:12:00,68.0,46.0,29.95,ENE,62,2.0,6.0,45,0.00,,,0.00,,2013-03-19 22:12:00,
2013-03-19 17:23:00,68.0,46.0,29.95,ENE,62,2.0,6.0,45,0.00,,,0.00,,2013-03-19 22:23:00,
2013-03-19 17:33:00,68.0,47.0,29.96,ENE,63,1.0,5.0,47,0.00,,,0.00,,2013-03-19 22:33:00,
2013-03-19 17:53:00,68.0,47.0,29.96,ESE,107,6.0,9.0,47,0.00,,,0.00,,2013-03-19 22:53:00,
2013-03-19 18:02:00,67.0,46.0,29.96,SE,126,4.0,7.0,47,0.00,,,0.00,,2013-03-19 23:02:00,
2013-03-19 18:12:00,67.0,46.0,29.96,East,95,2.0,6.0,47,0.00,,,0.00,,2013-03-19 23:12:00,
2013-03-19 18:22:00,67.0,46.0,29.96,East,95,2.0,6.0,47,0.00,,,0.00,,2013-03-19 23:22:00,
2013-03-19 18:32:00,67.0,47.0,29.96,East,94,0.0,3.0,48,0.00,,,0.00,,2013-03-19 23:32:00,
2013-03-19 18:42:00,67.0,47.0,29.96,East,94,0.0,3.0,48,0.00,,,0.00,,2013-03-19 23:42:00,
2013-03-19 18:52:00,67.0,46.0,29.97,East,81,1.0,6.0,47,0.00,,,0.00,,2013-03-19 23:52:00,
2013-03-19 19:02:00,67.0,45.0,29.96,ENE,61,6.0,9.0,45,0.00,,,0.00,,2013-03-20 00:02:00,
2013-03-19 19:12:00,67.0,45.0,29.96,ENE,61,6.0,9.0,45,0.00,,,0.00,,2013-03-20 00:12:00,
2013-03-19 19:22:00,66.0,43.0,29.96,NE,56,6.0,9.0,44,0.00,,,0.00,,2013-03-20 00:22:00,
2013-03-19 19:33:00,66.0,43.0,29.97,NE,56,7.0,13.0,43,0.00,,,0.00,,2013-03-20 00:33:00,
2013-03-19 19:42:00,66.0,43.0,29.97,NE,56,7.0,13.0,43,0.00,,,0.00,,2013-03-20 00:42:00,
2013-03-19 19:52:00,66.0,43.0,29.98,ENE,65,8.0,12.0,43,0.00,,,0.00,,2013-03-20 00:52:00,
2013-03-19 20:02:00,65.0,42.0,29.98,NE,56,6.0,10.0,43,0.00,,,0.00,,2013-03-20 01:02:00,
2013-03-19 20:12:00,65.0,43.0,29.97,NE,52,6.0,10.0,44,0.00,,,0.00,,2013-03-20 01:12:00,
2013-03-19 20:22:00,65.0,43.0,29.97,NE,52,6.0,10.0,44,0.00,,,0.00,,2013-03-20 01:22:00,
2013-03-19 20:32:00,65.0,43.0,29.98,NE,40,5.0,10.0,44,0.00,,,0.00,,2013-03-20 01:32:00,
2013-03-19 20:42:00,65.0,43.0,29.98,NE,40,5.0,10.0,44,0.00,,,0.00,,2013-03-20 01:42:00,
2013-03-19 20:52:00,64.0,40.0,29.98,NNE,33,10.0,20.0,42,0.00,,,0.00,,2013-03-20 01:52:00,
2013-03-19 21:02:00,63.0,39.0,29.99,NE,41,8.0,13.0,41,0.00,,,0.00,,2013-03-20 02:02:00,
2013-03-19 21:12:00,63.0,39.0,29.99,NE,41,8.0,13.0,41,0.00,,,0.00,,2013-03-20 02:12:00,
2013-03-19 21:22:00,63.0,38.0,29.99,NE,45,8.0,14.0,40,0.00,,,0.00,,2013-03-20 02:22:00,
2013-03-19 21:32:00,63.0,38.0,30.00,NE,51,6.0,14.0,39,0.00,,,0.00,,2013-03-20 02:32:00,
2013-03-19 21:42:00,63.0,38.0,30.00,NE,51,6.0,14.0,39,0.00,,,0.00,,2013-03-20 02:42:00,
2013-03-19 21:53:00,63.0,38.0,30.01,NE,53,9.0,14.0,39,0.00,,,0.00,,2013-03-20 02:53:00,
2013-03-19 22:02:00,62.0,36.0,30.03,NE,50,5.0,12.0,38,0.00,,,0.00,,2013-03-20 03:02:00,
2013-03-19 22:12:00,62.0,35.0,30.06,NE,55,5.0,12.0,37,0.00,,,0.00,,2013-03-20 03:12:00,
2013-03-19 22:22:00,62.0,35.0,30.06,NE,55,5.0,12.0,37,0.00,,,0.00,,2013-03-20 03:22:00,
2013-03-19 22:33:00,62.0,36.0,30.08,ENE,63,5.0,9.0,38,0.00,,,0.00,,2013-03-20 03:33:00,
2013-03-19 22:42:00,62.0,36.0,30.08,ENE,63,5.0,9.0,38,0.00,,,0.00,,2013-03-20 03:42:00,
2013-03-19 22:53:00,62.0,36.0,30.09,ENE,57,7.0,12.0,38,0.00,,,0.00,,2013-03-20 03:53:00,
2013-03-19 23:03:00,61.0,36.0,30.09,NE,55,5.0,12.0,39,0.00,,,0.00,,2013-03-20 04:03:00,
2013-03-19 23:12:00,61.0,36.0,30.09,NE,55,5.0,12.0,39,0.00,,,0.00,,2013-03-20 04:12:00,
2013-03-19 23:22:00,61.0,35.0,30.08,NE,48,7.0,12.0,38,0.00,,,0.00,,2013-03-20 04:22:00,
2013-03-19 23:32:00,61.0,35.0,30.08,NE,54,9.0,16.0,38,0.00,,,0.00,,2013-03-20 04:32:00,
2013-03-19 23:43:00,61.0,35.0,30.08,NE,54,9.0,16.0,38,0.00,,,0.00,,2013-03-20 04:43:00,
2013-03-19 23:52:00,60.0,35.0,30.08,NE,52,8.0,12.0,39,0.00,,,0.00,,2013-03-20 04:52:00,